When you browse on this site, cookies collect data to enhance your experience and personalize the content and advertising you see.
Visit our Privacy Policy to learn more. By continuing to use the site, you agree to this use of cookies and data.
  • En España
  • Lista de países
  • Para 7 días
  • Temperatura del agua
  • Mapa Satelital
  • El tiempo en el mapa
  • Informadores
  • user-avatar
    Iniciar sesión

    Tiempo cada hora Abomey

    Hoy, 13 Diciembre, Jueves

    Tiempo Temperatura Precipitaciones Viento Presión Humedad
    00:00 +27°C° 0 mm 1 mps 740 mmHg 77%
    01:00 +27°C° 0 mm 1 mps 740 mmHg 79%
    02:00 +26°C° 0 mm 1 mps 740 mmHg 81%
    03:00 +26°C° 0 mm 1 mps 740 mmHg 83%
    04:00 +24°C° 0 mm 0 mps 740 mmHg 84%
    05:00 +23°C° 0 mm 0 mps 740 mmHg 85%
    06:00 +23°C° 0 mm 0 mps 740 mmHg 86%
    07:00 +26°C° 0 mm 0 mps 741 mmHg 74%
    08:00 +28°C° 0 mm 0 mps 741 mmHg 63%
    09:00 +31°C° 0 mm 0 mps 742 mmHg 51%
    10:00 +32°C° 0 mm 0 mps 741 mmHg 43%
    11:00 +36°C° 0 mm 1 mps 741 mmHg 35%
    12:00 +38°C° 0 mm 2 mps 740 mmHg 27%
    13:00 +39°C° 0 mm 2 mps 740 mmHg 25%
    14:00 +39°C° 0 mm 2 mps 739 mmHg 24%
    15:00 +39°C° 0 mm 2 mps 738 mmHg 23%
    16:00 +38°C° 0 mm 2 mps 738 mmHg 26%
    17:00 +36°C° 0 mm 2 mps 739 mmHg 29%
    18:00 +35°C° 0 mm 2 mps 739 mmHg 33%
    19:00 +32°C° 0 mm 2 mps 739 mmHg 41%
    20:00 +31°C° 0 mm 2 mps 740 mmHg 49%
    21:00 +30°C° 0 mm 2 mps 740 mmHg 57%
    22:00 +29°C° 0 mm 2 mps 740 mmHg 62%
    23:00 +28°C° 0 mm 2 mps 740 mmHg 67%

    Mañana, 14 Diciembre, Viernes

    Tiempo Temperatura Precipitaciones Viento Presión Humedad
    00:00 +27°C° 0 mm 2 mps 740 mmHg 72%
    01:00 +27°C° 0 mm 1 mps 740 mmHg 74%
    02:00 +27°C° 0 mm 1 mps 740 mmHg 76%
    03:00 +26°C° 0 mm 1 mps 739 mmHg 77%
    04:00 +26°C° 0 mm 1 mps 739 mmHg 79%
    05:00 +26°C° 0 mm 1 mps 740 mmHg 80%
    06:00 +25°C° 0 mm 1 mps 740 mmHg 82%
    07:00 +28°C° 0 mm 1 mps 741 mmHg 71%
    08:00 +30°C° 0 mm 1 mps 741 mmHg 61%
    09:00 +31°C° 0 mm 0 mps 742 mmHg 50%
    10:00 +35°C° 0 mm 1 mps 741 mmHg 42%
    11:00 +37°C° 0 mm 1 mps 741 mmHg 34%
    12:00 +40°C° 0 mm 1 mps 740 mmHg 25%
    13:00 +40°C° 0 mm 1 mps 740 mmHg 24%
    14:00 +40°C° 0 mm 1 mps 739 mmHg 22%
    15:00 +40°C° 0 mm 1 mps 738 mmHg 21%
    16:00 +38°C° 0 mm 2 mps 738 mmHg 27%
    17:00 +37°C° 0 mm 2 mps 739 mmHg 32%
    18:00 +35°C° 0 mm 2 mps 739 mmHg 38%
    19:00 +33°C° 0 mm 3 mps 739 mmHg 49%
    20:00 +31°C° 0 mm 3 mps 740 mmHg 60%
    21:00 +29°C° 0 mm 4 mps 741 mmHg 71%
    22:00 +29°C° 0 mm 3 mps 740 mmHg 73%
    23:00 +28°C° 0 mm 3 mps 740 mmHg 75%

    Pasado mañana, 15 Diciembre, Sábado

    Tiempo Temperatura Precipitaciones Viento Presión Humedad
    00:00 +28°C° 0 mm 3 mps 740 mmHg 78%
    01:00 +28°C° 0 mm 2 mps 740 mmHg 80%
    02:00 +27°C° 0 mm 2 mps 740 mmHg 82%
    03:00 +27°C° 0 mm 1 mps 739 mmHg 84%
    04:00 +26°C° 0 mm 1 mps 740 mmHg 85%
    05:00 +26°C° 0 mm 1 mps 740 mmHg 87%
    06:00 +26°C° 0 mm 1 mps 740 mmHg 88%
    07:00 +28°C° 0 mm 1 mps 741 mmHg 78%
    08:00 +30°C° 0 mm 1 mps 742 mmHg 69%
    09:00 +32°C° 0 mm 1 mps 742 mmHg 59%
    10:00 +34°C° 0 mm 1 mps 742 mmHg 49%
    11:00 +37°C° 0 mm 1 mps 741 mmHg 39%
    12:00 +38°C° 0 mm 0 mps 741 mmHg 29%
    13:00 +40°C° 0 mm 1 mps 740 mmHg 27%
    14:00 +40°C° 0 mm 1 mps 739 mmHg 25%
    15:00 +40°C° 0 mm 1 mps 738 mmHg 23%
    16:00 +39°C° 0 mm 2 mps 739 mmHg 28%
    17:00 +37°C° 0 mm 2 mps 739 mmHg 33%
    18:00 +35°C° 0 mm 2 mps 739 mmHg 38%
    19:00 +33°C° 0 mm 3 mps 740 mmHg 49%
    20:00 +31°C° 0 mm 3 mps 740 mmHg 61%
    21:00 +29°C° 0 mm 4 mps 741 mmHg 72%
    22:00 +29°C° 0 mm 3 mps 740 mmHg 74%
    23:00 +28°C° 0 mm 3 mps 740 mmHg 76%

    16 Diciembre, Domingo

    Tiempo Temperatura Precipitaciones Viento Presión Humedad
    00:00 +28°C° 0 mm 3 mps 740 mmHg 77%
    01:00 +28°C° 0 mm 2 mps 740 mmHg 79%
    02:00 +27°C° 0 mm 2 mps 740 mmHg 80%
    03:00 +27°C° 0 mm 2 mps 739 mmHg 82%
    04:00 +27°C° 0 mm 2 mps 740 mmHg 83%
    05:00 +27°C° 0 mm 1 mps 740 mmHg 84%
    06:00 +26°C° 0 mm 1 mps 740 mmHg 85%
    07:00 +28°C° 0 mm 1 mps 741 mmHg 77%
    08:00 +30°C° 0 mm 1 mps 741 mmHg 68%
    09:00 +31°C° 0 mm 2 mps 742 mmHg 60%
    10:00 +34°C° 0 mm 1 mps 741 mmHg 49%
    11:00 +37°C° 0 mm 1 mps 741 mmHg 39%
    12:00 +38°C° 0 mm 0 mps 740 mmHg 29%
    13:00 +40°C° 0 mm 1 mps 739 mmHg 27%
    14:00 +40°C° 0 mm 1 mps 739 mmHg 25%
    15:00 +40°C° 0 mm 1 mps 738 mmHg 23%
    16:00 +38°C° 0 mm 2 mps 738 mmHg 29%
    17:00 +37°C° 0 mm 2 mps 738 mmHg 34%
    18:00 +35°C° 0 mm 3 mps 739 mmHg 40%
    19:00 +33°C° 0 mm 3 mps 739 mmHg 51%
    20:00 +31°C° 0 mm 3 mps 740 mmHg 62%
    21:00 +29°C° 0 mm 4 mps 740 mmHg 72%
    22:00 +29°C° 0 mm 4 mps 740 mmHg 75%
    23:00 +28°C° 0 mm 3 mps 740 mmHg 77%

    17 Diciembre, Lunes

    Tiempo Temperatura Precipitaciones Viento Presión Humedad
    00:00 +28°C° 0 mm 3 mps 740 mmHg 79%
    01:00 +28°C° 0 mm 2 mps 740 mmHg 80%
    02:00 +27°C° 0 mm 2 mps 739 mmHg 82%
    03:00 +27°C° 0 mm 2 mps 739 mmHg 84%
    04:00 +27°C° 0 mm 2 mps 739 mmHg 84%
    05:00 +27°C° 0 mm 2 mps 739 mmHg 85%
    06:00 +27°C° 0 mm 2 mps 740 mmHg 85%
    07:00 +28°C° 0 mm 2 mps 740 mmHg 79%
    08:00 +29°C° 0 mm 2 mps 741 mmHg 72%
    09:00 +30°C° 0 mm 1 mps 741 mmHg 65%
    10:00 +33°C° 0.1 mm 1 mps 741 mmHg 57%
    11:00 +35°C° 0.1 mm 1 mps 740 mmHg 48%
    12:00 +37°C° 0.1 mm 1 mps 740 mmHg 40%
    13:00 +37°C° 0 mm 1 mps 739 mmHg 38%
    14:00 +37°C° 0 mm 1 mps 739 mmHg 37%
    15:00 +37°C° 0 mm 2 mps 738 mmHg 35%
    16:00 +36°C° 0 mm 2 mps 738 mmHg 39%
    17:00 +35°C° 0 mm 2 mps 738 mmHg 43%
    18:00 +34°C° 0 mm 3 mps 739 mmHg 47%
    19:00 +33°C° 0 mm 3 mps 739 mmHg 54%
    20:00 +31°C° 0 mm 3 mps 739 mmHg 62%
    21:00 +29°C° 0 mm 3 mps 740 mmHg 69%
    22:00 +29°C° 0 mm 3 mps 740 mmHg 72%
    23:00 +28°C° 0 mm 3 mps 740 mmHg 75%

    18 Diciembre, Martes

    Tiempo Temperatura Precipitaciones Viento Presión Humedad
    00:00 +28°C° 0 mm 2 mps 740 mmHg 77%
    01:00 +28°C° 0 mm 2 mps 739 mmHg 79%
    02:00 +27°C° 0 mm 2 mps 739 mmHg 81%
    03:00 +27°C° 0 mm 1 mps 738 mmHg 83%
    04:00 +27°C° 0.1 mm 1 mps 739 mmHg 84%
    05:00 +26°C° 0.1 mm 1 mps 739 mmHg 85%
    06:00 +26°C° 0.1 mm 1 mps 739 mmHg 87%
    07:00 +28°C° 0 mm 1 mps 740 mmHg 77%
    08:00 +30°C° 0 mm 1 mps 740 mmHg 67%
    09:00 +32°C° 0 mm 2 mps 741 mmHg 57%
    10:00 +34°C° 0.1 mm 1 mps 740 mmHg 49%
    11:00 +36°C° 0.1 mm 1 mps 740 mmHg 40%
    12:00 +40°C° 0.1 mm 1 mps 739 mmHg 32%
    13:00 +39°C° 0 mm 1 mps 739 mmHg 32%
    14:00 +37°C° 0 mm 1 mps 738 mmHg 33%
    15:00 +37°C° 0 mm 2 mps 737 mmHg 33%
    16:00 +37°C° 0 mm 2 mps 737 mmHg 36%
    17:00 +36°C° 0 mm 2 mps 738 mmHg 39%
    18:00 +35°C° 0 mm 3 mps 738 mmHg 42%
    19:00 +33°C° 0.1 mm 3 mps 738 mmHg 50%
    20:00 +31°C° 0.1 mm 3 mps 739 mmHg 57%
    21:00 +29°C° 0.1 mm 4 mps 739 mmHg 65%
    22:00 +29°C° 0 mm 3 mps 739 mmHg 68%
    23:00 +28°C° 0 mm 3 mps 739 mmHg 71%
    Mostrar más